Other Surface Observations
Issued by NWS

Home | Current Version | Previous Version | Text Only | Print | Product List | Glossary On
Versions: 1 2 3 4 5 6 7 8 9 10 11 12 13 14 15 16 17 18 19 20 21 22 23 24 25 26 27 28 29 30 31 32 33 34 35 36 37 38 39 40 41 42 43 44 45 46 47 48 49 50
000
SXUS52 KTAE 252218
OSOTAE
OSOTAE
North Florida/South Alabama/Southwest Georgia Weather Roundup
National Weather Service Tallahassee Florida
500 PM EST SUN FEB 25 2018

Note: "fair" indicates few or no clouds below 12,000 feet with no
significant weather and/or obstructions to visibility.

!FLZ017-115-028-034-025-252300
...North Florida...

CITY           SKY/WX    TMP DP  RH WIND       PRES   REMARKS
TALLAHASSEE    CLOUDY    69  64  84 S12       30.10F
APALACHICOLA   CLOUDY    71  66  84 SE14      30.10R
PERRY          CLOUDY    77  66  69 SW10      30.13R
CROSS CITY     FAIR      79  67  65 SW10      30.16S
JACKSONVILLE   FAIR      84  60  44 SW10      30.08S
$$

!FLZ112-006-005-002-011-252300
...Florida Panhandle...

CITY           SKY/WX    TMP DP  RH WIND       PRES   REMARKS
MARIANNA       PTSUNNY   75  58  55 NE13      30.09S
BONIFAY        NOT AVBL
PANAMA CITY NW PTSUNNY   79  61  53 N3        30.07R
TYNDALL AFB    FAIR      75  66  74 S13       30.09S
TYND DRONE APT MOCLDY    75  66  73 S12       30.09S
DE FUNIAK SPR  CLOUDY    71  57  61 N10       30.10S
EGLIN AFB      PTSUNNY   73  57  57 NE17      30.08R
DESTIN         CLOUDY    75  59  57 N9        30.08S
HURLBURT       PTSUNNY   73  60  65 N9        30.08R
CRESTVIEW      PTSUNNY   74  58  57 VRB7      30.11S
PENSACOLA      CLOUDY    72  58  61 VRB7      30.09S
$$

!ALZ063-066-252300
...South Alabama...

CITY           SKY/WX    TMP DP  RH WIND       PRES   REMARKS
DOTHAN         CLOUDY    69  56  62 E9        30.14R
OZARK CAIRNS   PTSUNNY   71  55  55 N5          N/A
FT RUCKER HELI CLOUDY    69  56  63 N6        30.11R
RUCKER HELI 3    N/A    N/A N/A N/A MISG        N/A
RUCKER HELI 2  CLOUDY    72  54  53 NE6       30.11R
FLORALA APT    PTSUNNY   70  54  56 NE9       30.13S
ANDALUSIA      CLOUDY    73  54  51 NE8       30.11R
TROY           CLOUDY    67  56  67 N3        30.13R
EUFALA         CLOUDY    70  56  61 E7        30.10R
MOBILE         CLOUDY    69  59  70 E10       30.09S
$$

!GAZ120>161-252300
...Southwest and South Central Georgia...

CITY           SKY/WX    TMP DP  RH WIND       PRES   REMARKS
THOMASVILLE    CLOUDY    68  68 100 NW7       30.14R
BAINBRIDGE     CLOUDY    66  66 100 E10       30.12S
MOODY AFB      LGT RAIN  70  64  83 SW14G22   30.10S
VALDOSTA       LGT RAIN  67  66  97 VRB5      30.12R FOG
MOULTRIE       RAIN      68  61  77 N10G20    30.14R
BLAKELY        CLOUDY    72  52  49 NE5       30.12R
ALBANY         CLOUDY    70  55  59 NE9       30.14F
TIFTON         DRIZZLE  N/A N/A N/A N8        30.15R
FITZGERALD     CLOUDY    64  64  99 NE5       30.17S
CORDELE        CLOUDY    75  53  46 N9        30.14S
AMERICUS       CLOUDY    68  48  49 NE5       30.14R
HOMERVILLE     CLOUDY    68  64  88 N9        30.12F
$$

!GMZ750-755-770-775-252300
...Coastal and Buoy Obs...

STATION/POSITION TIME  TEMP    WIND        PRES    VSBY  WAVE
                       AIR SEA DIR/SP/G                  HT/PER
                 (UTC) (F)     (DEG/KT/KT) (MB)    (MI)  (FT/S)
KEATON BEACH     2200   72     180/ 11/ 12 1020.2F
CEDAR KEY        2200   75     220/  6/  9 1020.1F
C TOWER          2200   66      60/  8/  9 1020.1F
APALACHICOLA BUO NOT AVBL
PANAMA CITY BUOY 2150   76 76  180/  8/  8 1017.8F         3/ 5
MOBILE BUOY      2200   70 72   50/ 17/ 21 1018.1
ORANGE BCH AL BU NOT AVBL
$$




USA.gov is the U.S. government's official web portal to all federal, state and local government web resources and services.